Torna al catalogo

STARLINK-2471

AttivoComunicazioniVLEO
NORAD 48129·PAYLOAD·🇺🇸 United States

Lanciato Apr 7, 2021 da Cape Canaveral Space Force Station

Loading…

Prossimi Passaggi (prossime 24 ore)

TLE

AggiornatoSource: CelesTrak SupGP

Epoca: Sep 14, 2026, 21:43 UTC

1 48129C 21027AP  26257.90534722 -.00023417  00000+0 -75276-3 0  2575
2 48129  53.1610   5.0017 0001287  78.1994 260.3749 15.31725687    18

Traccia STARLINK-2471 in tempo reale con AllMySat

Download on the App Store